Apalachee Bay - Ochlockonee Bay Weather Center

Moon Phase Calendar



Online Cameras

 


      

Current Conditions in Wakulla
9/22/2021 2:41:59 PM

85°F
Feels Like 92
Clouds
Humidity
69%
Pressure
29.85"
Wind
10.5 mph (SSW)
Dew Point
74°F
UV Index
4/10 (Moderate)
Visibility
6 mi

Hourly Forecast

Date & Time Wed, Sep 22
2:00 PM
Wed, Sep 22
3:00 PM
Wed, Sep 22
4:00 PM
Wed, Sep 22
5:00 PM
Wed, Sep 22
6:00 PM
Wed, Sep 22
7:00 PM
Wed, Sep 22
8:00 PM
Wed, Sep 22
9:00 PM
Wed, Sep 22
10:00 PM
Wed, Sep 22
11:00 PM
Thu, Sep 23
12:00 AM
Thu, Sep 23
1:00 AM
Thu, Sep 23
2:00 AM
Thu, Sep 23
3:00 AM
Thu, Sep 23
4:00 AM
Thu, Sep 23
5:00 AM
Thu, Sep 23
6:00 AM
Thu, Sep 23
7:00 AM
Thu, Sep 23
8:00 AM
Thu, Sep 23
9:00 AM
Thu, Sep 23
10:00 AM
Thu, Sep 23
11:00 AM
Thu, Sep 23
12:00 PM
Thu, Sep 23
1:00 PM
Thu, Sep 23
2:00 PM
Thu, Sep 23
3:00 PM
Thu, Sep 23
4:00 PM
Thu, Sep 23
5:00 PM
Thu, Sep 23
6:00 PM
Thu, Sep 23
7:00 PM
Thu, Sep 23
8:00 PM
Thu, Sep 23
9:00 PM
Thu, Sep 23
10:00 PM
Thu, Sep 23
11:00 PM
Fri, Sep 24
12:00 AM
Fri, Sep 24
1:00 AM
Fri, Sep 24
2:00 AM
Fri, Sep 24
3:00 AM
Fri, Sep 24
4:00 AM
Fri, Sep 24
5:00 AM
Fri, Sep 24
6:00 AM
Fri, Sep 24
7:00 AM
Fri, Sep 24
8:00 AM
Fri, Sep 24
9:00 AM
Fri, Sep 24
10:00 AM
Fri, Sep 24
11:00 AM
Fri, Sep 24
12:00 PM
Fri, Sep 24
1:00 PM
Condition
Rain

Rain

Rain

Clouds

Rain

Rain

Rain

Clouds

Clouds

Clouds

Clouds

Clouds

Clouds

Clouds

Clouds

Clouds

Clouds

Clouds

Clouds

Clouds

Clouds

Clouds

Clouds

Clouds

Clouds

Clear

Clear

Clear

Clear

Clear

Clear

Clear

Clear

Clear

Clear

Clear

Clear

Clear

Clear

Clear

Clear

Clear

Clear

Clear

Clear

Clear

Clear

Clear
Temperature 85°F85°F85°F84°F83°F82°F79°F77°F76°F75°F74°F73°F72°F71°F70°F69°F68°F66°F66°F66°F68°F71°F74°F76°F78°F79°F80°F80°F79°F76°F74°F72°F71°F69°F68°F68°F67°F66°F65°F65°F64°F63°F63°F65°F68°F71°F74°F77°F
Feels Like 91°F92°F92°F90°F88°F87°F79°F79°F77°F76°F74°F73°F72°F71°F70°F68°F67°F66°F65°F66°F68°F70°F73°F76°F77°F79°F80°F80°F79°F76°F73°F72°F70°F69°F68°F67°F66°F65°F64°F64°F63°F62°F62°F64°F67°F70°F73°F76°F
Cloudiness 37%46%47%52%60%69%80%38%19%13%12%16%27%100%100%100%100%92%87%45%29%21%16%13%11%0%2%3%3%2%2%0%0%0%0%0%0%0%0%0%0%0%0%0%0%0%0%0%
Visibility 6 mi6 mi6 mi6 mi6 mi6 mi6 mi6 mi6 mi6 mi6 mi6 mi6 mi6 mi6 mi6 mi6 mi6 mi6 mi6 mi6 mi6 mi6 mi6 mi6 mi6 mi6 mi6 mi6 mi6 mi6 mi6 mi6 mi6 mi6 mi6 mi6 mi6 mi6 mi6 mi6 mi6 mi6 mi6 mi6 mi6 mi6 mi6 mi
Precipitation 43%28%37%56%73%81%86%20%21%13%10%10%10%0%0%0%0%0%0%0%0%0%0%0%0%0%0%0%0%0%0%0%0%0%0%0%0%0%0%0%0%0%0%0%0%0%0%0%
Humidity 68%69%70%71%74%76%81%85%84%79%75%73%69%67%68%67%68%69%69%67%58%50%43%39%36%34%34%35%38%43%48%53%58%61%62%61%60%59%59%60%61%62%62%59%54%48%41%35%
Dew Point 73°F74°F74°F73°F73°F73°F73°F72°F71°F68°F65°F64°F62°F60°F59°F57°F57°F56°F55°F55°F53°F52°F50°F50°F49°F49°F49°F50°F51°F53°F53°F54°F55°F55°F55°F54°F52°F51°F51°F50°F50°F50°F50°F50°F51°F50°F49°F47°F
Pressure 29.85"29.85"29.85"29.85"29.85"29.85"29.88"29.88"29.91"29.91"29.91"29.91"29.91"29.91"29.91"29.91"29.91"29.94"29.94"29.97"29.97"29.97"29.97"29.97"29.94"29.91"29.91"29.91"29.91"29.94"29.94"29.97"30"30"30"30"29.97"29.97"29.97"30"30"30.03"30.03"30.06"30.06"30.06"30.06"30.03"
Wind Speed 9 mph10.5 mph8.8 mph9.7 mph9.6 mph8.8 mph11.4 mph14.5 mph15.8 mph15.8 mph15.4 mph15.6 mph15.2 mph14.6 mph14.2 mph13.6 mph13.4 mph13.2 mph13 mph13.4 mph13.2 mph12.5 mph11 mph10.3 mph9.8 mph10 mph10.4 mph11.4 mph11.8 mph11.4 mph10.1 mph9.4 mph9.3 mph9 mph9 mph9.4 mph9.9 mph10.4 mph10.6 mph10.5 mph10.3 mph10.1 mph9.8 mph9.5 mph8.6 mph7.8 mph6.5 mph4.6 mph
Wind
Direction
179°
S
199°
SSW
212°
SSW
224°
SW
256°
WSW
295°
WNW
331°
NNW
334°
NNW
338°
NNW
343°
NNW
348°
NNW
353°
N

N

N

N

N

N

N

N

N

N

N

N
358°
N
356°
N
353°
N
354°
N
357°
N
359°
N

N

N

N

N
10°
N
10°
N

N

N

N
13°
NNE
15°
NNE
15°
NNE
13°
NNE
14°
NNE
17°
NNE
15°
NNE
13°
NNE
14°
NNE
17°
NNE

Daily Forecast

Date High Low Precip. Humidity
Today
Sep 22

Rain
85 °F
75 °F
86%
69%
Thursday
Sep 23

Clouds
80 °F
66 °F
10%
39%
Friday
Sep 24

Clear
80 °F
63 °F
0%
31%
Saturday
Sep 25

Clear
79 °F
68 °F
15%
66%
Sunday
Sep 26

Clouds
82 °F
72 °F
9%
59%
Monday
Sep 27

Rain
82 °F
75 °F
21%
64%
Tuesday
Sep 28

Rain
81 °F
77 °F
40%
65%
Wednesday
Sep 29

Rain
83 °F
77 °F
39%
57%
Thursday
Sep 30

Clouds
84 °F
73 °F
0%
49%
Friday
Oct 1

Clouds
84 °F
70 °F
0%
49%
Saturday
Oct 2

Clear
84 °F
70 °F
0%
48%
Sunday
Oct 3

Rain
81 °F
69 °F
37%
60%
Monday
Oct 4

Rain
80 °F
74 °F
49%
59%
Tuesday
Oct 5

Rain
81 °F
75 °F
100%
65%
Wednesday
Oct 6

Rain
78 °F
74 °F
100%
59%
Thursday
Oct 7

Rain
80 °F
76 °F
92%
69%

Temperature 8-14 Day Outlook



Precipitation 8-14 Day Outlook




Quick Links
Apalachee Bay - Ochlockonee Bay News
Apalachee Bay - Ochlockonee Bay Photos
Apalachee Bay - Ochlockonee Bay Videos




About Us
Contact Us
Site Map
Search Site
Advertise With Us
   
Apalachee.USGulf.info
THE APALACHEE BAY - OCHLOCKONEE BAY WEBSITE

Copyright 2021, Coastal Town
Privacy    |    Legal